Regional Weather Roundup
Issued by NWS Green Bay, WI

Home | Current Version | Previous Version | Graphics & Text | Print | Product List | Glossary Off
Versions: 1 2 3 4 5 6 7 8 9 10 11 12 13 14 15 16 17 18 19 20 21 22 23 24 25 26 27 28 29 30 31 32 33 34 35 36 37 38 39 40 41 42 43 44 45 46 47 48 49 50

000
ASUS43 KGRB 060011
RWRGRB

NORTH-CENTRAL AND NORTHEAST WISCONSIN REGIONAL WEATHER ROUNDUP
NATIONAL WEATHER SERVICE GREEN BAY WI
700 PM CDT SUN JUL 05 2015

WIZ005-009-010>012-018-019-060100-
NORTH CENTRAL WISCONSIN

CITY           SKY/WX    TMP DP  RH WIND       PRES   REMARKS
IRONWOOD       PTSUNNY   79  63  57 S9G22     29.81F
MANITOWISH WTR PTSUNNY   76  63  62 S9        29.90F
ARBOR VITAE    MOSUNNY   77  62  59 SW12      29.92F
EAGLE RIVER    MOSUNNY   77  57  50 SW6G18    29.93S
LAND O LAKES   MOSUNNY   78  60  52 S9        29.93F
RHINELANDER    MOSUNNY   79  61  53 SW10      29.96S
PHILLIPS       PTSUNNY   77  64  63 S9        29.90F
ANTIGO         SUNNY     76  62  63 S12       29.96F
TOMAHAWK       SUNNY     77  63  61 S3        29.94S
MERRILL        SUNNY     79  64  60 S7        29.95S
$$

WIZ013-073-060100-
NORTHEAST WISCONSIN

CITY           SKY/WX    TMP DP  RH WIND       PRES   REMARKS
IRON MOUNTAIN  SUNNY     79  61  53 S9        29.93F
MARINETTE      SUNNY     75  63  64 S10       29.95F
OCONTO         SUNNY     76  65  69 S8        29.95S
$$

WIZ017-030-035>037-045-060100-
CENTRAL WISCONSIN

CITY           SKY/WX    TMP DP  RH WIND       PRES   REMARKS
MEDFORD        MOSUNNY   77  64  62 S12       29.93F
WAUSAU         SUNNY     80  61  52 S13       29.93F
MOSINEE        SUNNY     77  64  65 S12       29.96F
MARSHFIELD     MOSUNNY   80  62  54 S14G20    29.95S
WISC RAPIDS    MOSUNNY   80  61  52 SW8       29.96F
STEVENS POINT  MOSUNNY   79  61  54 S12G17    29.96S
WAUPACA        SUNNY     82  64  53 S7        29.96F
SHAWANO        SUNNY     82  62  50 S7        29.95F
CLINTONVILLE   SUNNY     81  61  50 S12       29.95F
$$

WIZ038-039-048-051-060100-
FOX VALLEY

CITY           SKY/WX    TMP DP  RH WIND       PRES   REMARKS
NWS GREEN BAY  SUNNY     81  62  52 S9        29.97S
APPLETON       MOSUNNY   79  61  53 S13       29.98F
OSHKOSH        SUNNY     79  63  57 S8        29.97F
FOND DU LAC    SUNNY     80  63  55 S9        29.98F
$$

WIZ022-050-052-060100-
EAST CENTRAL WISCONSIN

CITY           SKY/WX    TMP DP  RH WIND       PRES   REMARKS
STURGEON BAY   SUNNY     72  59  64 S14       30.00F
MANITOWOC      SUNNY     72  60  66 MISG      30.00F
SHEBOYGAN      SUNNY     73  60  63 S9        30.00F
$$

LMZ563-521-522-541>543-060100-
LAKESHORE

STATION/POSITION TIME  TEMP    WIND        PRES    VSBY  WAVE
                       AIR SEA DIR/SP/G                  HT/PER
                 (UTC) (F)     (DEG/KT/KT) (MB)    (MI)  (FT/S)
SHEBOYGAN LKSHOR 0000   64     170/ 15/ 16 1016.0F
KEWAUNEE LKSHORE 2300   64     190/ 12/ 15 1015.4F
NORTHPORT PIER   2300   70     160/  7/ 15 1015.2S
N MID LAKE BUOY  2350   55 47  190/ 10/ 12 1015.3F         1/ 3
S GREEN BAY BUOY 0000   74 71  170/ 14/ 17 1015.9F
CHAMBERS ISLAND  2300   75     150/  5/ 14 1014.6F
MENOMINEE LKSHOR 2300   74     150/ 16/ 19 1015.0F
$$



USA.gov is the U.S. government's official web portal to all federal, state and local government web resources and services.